RH
76 76 75 73 71 70 71 74 76 78 82 84 82 78 82 92 99 97 90 84 81 83 86 81 72 59 47 42 37 31 28 26 27 29 30 39 53 54 39 27 26 29 32 34 35 35 33 33 34 34 35 36 36 37 38 40 41 40 40 40 40 41 44 45 43 41 41 40 41 44 47 49 50 52 53 53 53 51 49 50 51 51 49 47 46 47
81 78 77 74 73 73 73 75 76 80 85 84 81 83 89 93 93 90 86 84 81 81 81 72 61 50 41 37 33 29 27 28 30 31 37 52 57 41 26 25 29 33 35 35 34 33 33 34 34 35 36 37 37 38 39 41 42 43 43 43 43 43 45 45 43 41 40 40 43 45 48 51 54 56 57 58 58 57 56 57 56 54 52 49 48 48
84 82 80 78 76 75 73 73 76 83 87 84 84 87 89 88 86 85 85 86 83 80 74 59 48 43 38 36 33 28 29 31 32 35 49 58 45 27 24 28 32 34 34 34 32 32 34 35 36 37 37 38 39 39 41 43 45 46 46 45 45 45 44 43 43 42 42 42 45 49 52 54 58 60 62 62 61 60 61 62 60 57 54 51 50 50
87 86 85 82 78 74 72 75 83 87 86 86 88 90 89 87 85 83 83 87 84 75 63 47 35 33 34 36 33 29 32 34 34 45 56 47 29 25 29 32 34 35 33 32 31 33 36 38 38 38 39 41 42 44 46 48 48 49 49 48 48 47 46 45 45 46 46 47 50 54 58 61 63 64 64 64 63 62 62 62 60 58 55 53 53 53
96 93 89 82 74 71 77 86 90 87 87 93 95 92 89 89 88 84 79 78 75 63 52 40 28 27 30 34 34 33 34 35 41 52 47 31 26 31 33 33 34 34 32 31 32 35 39 41 42 42 44 47 49 51 52 54 55 55 55 55 53 52 51 49 50 52 53 54 56 59 63 66 67 68 67 65 63 63 63 63 62 59 57 57 56 55
103 98 86 74 71 79 89 94 91 88 93 98 98 95 92 92 91 86 76 67 57 46 41 36 29 27 30 33 37 35 33 37 44 45 34 28 32 34 33 34 35 33 32 32 34 40 44 45 47 48 50 52 54 56 58 60 61 61 61 59 56 54 53 54 55 55 56 57 60 63 66 69 71 71 71 69 66 65 66 66 65 62 61 61 59 57
102 90 76 73 83 93 95 93 93 96 99 100 98 96 94 93 90 81 66 51 40 32 31 32 30 29 32 37 39 34 33 39 40 35 33 34 36 35 35 36 36 34 32 33 38 45 48 49 50 52 54 57 60 63 64 64 62 59 57 55 54 54 54 56 56 55 57 59 62 65 68 71 73 74 75 72 69 68 70 69 67 67 66 64 62 60
91 78 76 87 97 97 94 97 101 101 101 100 98 94 92 90 82 65 48 37 31 28 29 31 32 33 38 44 45 40 36 35 34 35 38 38 37 38 38 38 37 34 33 38 44 49 52 52 53 55 60 64 67 67 63 59 55 53 53 54 56 57 56 55 54 55 57 60 64 67 70 72 73 74 74 72 69 69 71 70 70 71 69 67 66 64
81 81 93 101 98 94 96 101 103 101 100 98 94 92 86 75 61 44 33 30 28 28 29 32 35 38 45 51 49 43 33 28 34 40 40 40 41 42 41 40 38 35 38 44 50 54 56 56 59 62 67 69 67 63 57 54 54 55 57 59 61 59 55 52 51 54 57 61 64 67 69 71 72 72 71 69 68 68 68 69 71 70 69 69 66 63
86 95 103 101 94 95 100 101 100 99 98 95 94 88 70 51 39 30 27 28 27 28 31 34 40 46 55 60 53 38 26 25 35 41 40 42 46 47 46 45 42 42 47 52 56 59 60 62 66 68 70 67 63 59 57 57 58 61 63 63 61 56 51 50 52 55 58 60 63 67 69 70 70 69 67 67 67 67 66 67 69 68 68 66 60 54
98 104 103 100 98 100 102 100 99 98 95 95 93 77 51 34 29 27 27 28 28 31 35 41 49 56 65 69 53 30 22 27 33 37 40 44 47 49 48 47 48 50 55 58 61 63 66 69 70 69 67 63 62 61 62 64 65 66 64 60 55 51 49 49 51 54 58 61 64 67 68 68 67 65 63 63 63 64 65 66 66 64 61 56 49 42
104 106 104 103 103 103 102 100 100 99 97 98 88 62 38 28 26 26 28 30 32 36 42 49 58 66 72 66 43 24 24 28 30 35 39 41 44 46 45 48 51 55 60 63 65 68 70 71 69 67 67 67 69 71 71 72 71 67 60 53 48 48 49 50 52 55 59 63 66 67 67 66 64 61 59 59 60 61 62 61 59 55 51 44 35 29
105 108 107 106 106 104 104 104 100 99 100 97 76 47 30 26 26 27 30 33 36 41 49 60 69 73 68 52 33 27 28 28 29 34 38 40 43 45 46 50 54 58 62 63 66 69 69 68 67 69 73 74 75 75 75 72 68 61 53 47 45 46 48 51 54 58 62 66 68 68 66 64 62 61 60 59 59 58 54 50 46 42 37 30 22 18
103 106 105 108 108 103 104 104 98 97 98 85 57 34 28 29 28 30 34 38 41 48 59 69 72 64 49 35 31 33 32 30 32 37 40 42 44 46 49 54 58 61 64 65 68 68 65 65 66 69 71 71 70 70 68 64 58 53 48 45 45 46 49 53 57 61 65 68 69 69 66 64 63 63 61 59 56 52 46 38 31 27 23 17 13 12
101 102 104 109 107 103 103 102 98 95 82 59 38 29 30 31 32 34 36 40 48 57 65 68 59 46 34 31 35 35 32 34 37 40 43 45 46 50 55 60 64 67 69 67 65 62 60 61 62 63 63 62 62 61 60 58 54 51 48 46 46 48 52 56 60 65 67 69 69 69 68 67 65 63 61 59 53 45 35 26 19 16 13 11 10 10
99 102 106 108 107 104 103 102 100 87 59 37 31 31 34 36 38 37 38 49 60 57 53 52 47 42 38 36 39 38 35 37 42 45 47 48 52 58 64 67 69 70 67 61 58 57 58 58 57 58 57 56 56 57 58 57 54 50 47 46 48 51 55 59 64 67 69 70 70 69 68 67 66 65 64 57 46 32 21 15 12 11 10 10 9 9
97 99 103 107 107 102 101 101 90 64 39 30 33 36 38 38 38 41 48 59 60 46 36 37 42 47 45 40 41 42 39 42 47 49 51 56 62 66 67 67 66 63 59 56 56 57 56 55 55 55 55 54 55 57 57 54 50 47 46 48 52 56 59 63 67 69 69 69 68 66 65 66 66 64 55 42 28 18 12 11 10 10 10 9 9 9
98 100 103 107 105 100 99 91 66 40 32 35 39 40 39 38 43 52 57 53 43 33 31 34 42 51 51 45 42 40 41 46 50 54 60 66 67 65 63 61 59 58 57 57 57 57 56 56 55 56 56 55 55 54 53 51 48 47 49 52 56 62 67 69 70 69 68 64 62 61 61 60 55 44 32 21 14 12 10 10 9 9 10 9 9 8
102 103 101 104 108 104 90 65 41 34 39 42 41 41 42 47 52 53 48 40 31 29 33 34 38 45 50 49 44 41 45 52 57 63 67 66 63 61 60 59 59 60 59 59 59 59 59 59 56 55 55 55 54 53 51 49 48 49 51 54 57 63 69 73 72 69 65 60 59 58 53 43 31 21 14 11 10 10 10 10 10 9 9 9 8 7
105 100 94 100 104 87 60 41 36 41 44 43 46 50 54 58 54 42 34 32 31 32 34 34 33 37 44 47 46 48 54 58 62 65 65 62 61 61 61 61 61 61 61 61 61 61 60 57 53 51 51 52 52 50 49 49 49 52 55 57 60 64 68 71 70 66 62 60 58 50 37 24 15 11 10 9 9 10 10 11 10 9 9 8 7 6
98 94 93 91 76 53 39 40 43 42 42 48 57 62 61 54 43 33 32 35 35 34 34 33 33 40 47 48 50 54 56 56 60 62 61 60 62 62 63 63 63 63 63 63 62 61 57 53 50 48 50 51 51 51 50 50 51 55 58 62 66 69 69 67 64 61 59 54 44 31 19 12 10 9 9 9 10 10 10 9 9 8 7 6 5 5
92 88 81 64 46 40 43 45 43 45 52 61 64 59 50 40 34 32 34 36 36 37 39 38 41 50 57 57 58 58 56 56 60 62 61 62 64 64 65 65 65 64 65 65 63 59 53 49 49 50 52 52 52 50 50 51 53 57 62 67 69 68 65 62 60 55 46 33 22 14 10 9 9 9 10 10 10 10 8 7 6 5 5 4 4 3
82 67 53 42 42 46 45 41 45 57 65 66 58 45 36 33 35 35 35 35 36 41 46 46 49 56 60 63 65 61 58 59 62 63 64 65 65 66 67 67 67 67 68 67 63 56 51 51 53 54 54 52 49 48 49 53 57 62 66 67 64 60 58 57 52 39 25 15 11 9 9 9 9 10 10 9 8 7 6 5 5 4 4 3 3 3
57 45 41 42 46 46 46 51 60 66 65 56 43 35 33 36 38 39 39 39 41 46 50 52 55 58 59 60 62 59 59 61 63 64 65 66 67 68 69 70 70 71 70 65 59 55 54 55 54 52 49 47 46 48 52 57 62 64 63 60 57 54 49 41 30 19 12 10 9 9 10 11 11 10 8 6 5 4 4 4 4 4 4 3 3 3
43 43 43 41 41 46 56 68 72 68 59 47 38 36 39 42 43 44 44 44 46 50 55 59 62 65 65 62 60 59 61 63 64 66 67 69 71 73 74 74 72 69 65 59 56 55 55 53 50 47 46 46 48 51 55 59 61 59 57 54 50 43 32 20 13 9 9 8 8 10 11 11 10 7 6 5 5 4 5 4 4 4 3 3 3 3
45 44 40 39 46 54 58 58 55 51 45 40 40 42 45 47 48 48 47 48 49 51 57 62 64 68 70 66 62 63 65 65 67 70 73 76 77 77 75 71 67 62 58 55 54 52 49 47 46 46 48 50 52 55 56 56 55 54 51 46 37 25 15 10 8 8 8 9 10 11 10 8 6 5 5 5 5 5 4 4 4 3 3 3 3 3
44 46 47 51 57 55 47 38 34 36 37 38 41 44 47 48 49 50 51 52 53 54 60 65 64 64 67 67 65 66 68 70 74 77 80 80 79 76 70 63 58 56 52 49 47 45 44 44 46 49 52 53 54 55 54 54 52 48 41 30 20 13 9 8 8 8 9 10 10 8 7 5 4 5 5 5 5 4 4 3 3 3 2 2 2 2
50 57 60 60 56 46 37 33 34 36 39 41 42 44 46 49 51 55 57 57 57 61 67 70 67 65 66 66 68 71 74 78 81 82 81 78 72 64 57 53 52 50 48 45 44 43 45 47 49 52 53 53 53 53 52 50 45 35 24 16 11 10 9 8 9 10 10 9 7 5 5 4 5 5 5 4 4 3 3 3 2 2 2 2 2 2
53 59 56 51 47 39 35 37 38 39 41 42 45 47 50 54 57 59 62 63 66 69 70 70 69 68 69 72 76 81 83 83 82 79 72 64 57 51 50 50 49 47 46 45 45 46 48 50 52 52 51 51 50 49 45 38 29 20 13 11 10 9 9 9 10 10 9 7 5 4 4 4 4 4 4 4 3 3 3 2 2 2 2 2 2 2
43 46 43 40 42 42 40 41 42 44 46 48 53 56 57 59 60 63 67 70 69 69 69 71 73 75 79 82 86 87 85 79 72 64 57 54 52 51 51 50 48 47 47 48 48 49 51 53 52 50 48 47 44 39 31 22 16 12 10 10 9 9 10 11 10 8 6 5 4 4 5 5 4 4 3 3 3 2 2 2 2 2 2 2 2 2
36 38 38 39 44 47 46 46 47 51 54 55 57 58 59 60 62 65 69 70 69 72 78 81 83 85 88 89 86 80 71 62 55 54 56 57 55 52 51 49 48 48 48 49 49 50 52 52 50 48 45 41 34 26 18 13 11 10 9 10 10 11 11 10 8 6 5 4 5 5 5 5 4 3 3 2 2 2 2 2 2 2 2 2 2 2
37 38 41 42 46 50 52 52 53 54 54 55 56 58 60 61 62 66 72 77 80 84 88 89 89 88 85 79 70 62 57 55 55 57 57 54 51 50 51 49 48 47 47 48 48 48 49 48 45 41 35 27 20 15 11 10 10 9 10 11 12 11 10 7 5 5 5 5 5 5 5 5 4 3 3 2 2 2 2 2 2 2 2 2 2 2
40 42 44 46 48 52 53 52 52 51 51 53 56 60 62 64 69 77 86 91 92 92 90 86 80 72 64 58 55 56 59 59 57 54 50 46 44 45 45 45 45 45 46 45 45 45 44 41 34 27 20 14 12 10 9 9 9 10 11 11 10 8 6 5 5 5 5 5 5 5 5 4 3 3 3 2 2 2 2 2 2 2 2 2 2 2
44 45 47 48 48 49 49 49 50 53 56 61 65 70 74 80 86 91 94 92 89 85 78 68 61 57 57 58 60 59 56 52 49 47 44 41 41 41 43 44 45 46 45 44 43 41 37 29 21 15 12 10 10 9 9 10 11 12 11 9 7 6 5 5 5 5 5 5 5 4 4 3 3 3 3 2 2 2 2 2 2 2 2 2 2 2
46 46 46 46 45 46 48 53 59 63 70 78 83 84 87 89 88 85 82 76 69 65 62 61 64 67 68 64 59 52 47 44 44 44 42 42 45 46 46 45 45 45 44 42 37 30 22 16 12 11 10 10 10 10 10 11 12 11 9 7 6 5 5 6 6 6 6 5 5 4 3 3 3 3 3 2 2 2 2 2 2 2 2 2 2 2
46 47 47 48 51 55 61 68 75 79 82 87 87 85 82 79 73 67 64 63 65 67 67 68 69 65 58 52 47 42 39 39 42 44 46 48 49 49 47 47 46 43 37 29 21 15 12 11 10 10 10 10 10 11 11 11 10 9 7 6 6 5 6 6 6 6 6 5 4 3 3 3 3 3 3 2 2 3 2 2 2 2 2 2 2 2
53 55 57 59 64 69 73 77 81 82 82 81 76 71 66 62 57 55 58 64 70 70 64 57 53 47 43 40 38 37 37 40 45 49 51 51 52 53 51 47 39 30 21 15 12 11 10 10 10 9 9 10 11 11 10 9 7 6 6 6 6 6 7 7 6 6 5 4 3 3 3 3 3 3 3 2 2 3 2 2 3 2 2 2 2 2
61 64 67 69 71 74 75 75 75 72 69 63 58 56 57 60 62 62 63 62 60 54 47 42 39 37 36 37 39 41 43 45 48 50 53 54 54 49 40 29 20 15 12 11 11 11 10 10 10 10 11 11 11 9 8 7 6 6 6 6 6 7 7 7 6 5 4 3 3 3 3 3 3 3 3 3 3 3 3 2 2 2 2 2 2 2
69 71 72 73 74 72 69 65 60 56 54 53 55 60 65 66 64 59 54 50 47 43 40 37 37 39 42 44 45 46 46 46 46 47 46 42 35 25 18 13 12 12 12 12 11 11 11 11 11 12 12 11 9 7 7 6 6 6 6 6 7 7 7 6 5 4 4 3 3 3 3 3 3 3 3 3 3 3 3 3 2 3 3 2 2 2
72 73 73 71 67 61 56 53 53 56 62 64 63 63 62 58 52 49 47 45 43 41 42 43 45 46 47 47 48 48 47 43 37 30 24 19 14 12 11 11 12 12 12 12 11 11 12 12 12 12 10 9 7 7 7 7 7 7 7 7 7 6 5 5 4 4 3 3 3 3 3 3 3 3 3 3 3 3 3 3 3 3 3 2 3 3
70 68 63 58 54 52 54 59 65 68 68 65 60 55 53 52 50 49 49 47 44 44 45 46 46 46 46 47 46 41 34 26 19 14 12 11 11 12 12 12 12 12 11 11 12 12 13 12 11 9 7 7 6 6 6 7 7 7 7 7 6 5 4 4 4 4 3 3 3 3 3 3 3 3 3 3 3 3 3 3 3 3 3 3 3 3
58 54 52 54 58 63 66 67 67 65 63 63 63 60 57 55 53 51 51 49 46 45 44 45 46 46 42 37 29 22 16 13 12 12 12 12 12 12 13 13 12 12 12 13 13 13 11 9 8 7 6 6 6 6 6 7 7 7 6 5 4 4 4 3 3 4 3 3 3 3 3 3 3 3 3 3 3 3 3 3 3 3 3 3 3 3
51 55 61 65 68 69 67 63 61 62 62 62 63 62 58 55 53 50 48 46 45 45 45 44 40 34 26 19 15 13 12 12 13 13 14 14 14 13 12 12 12 13 13 13 11 9 8 7 7 6 6 6 6 6 6 6 6 5 4 4 4 4 4 4 4 4 3 3 3 3 3 3 3 3 4 4 3 3 4 3 3 3 3 3 3 3
63 68 71 70 68 68 69 70 72 74 71 65 60 58 54 50 47 45 44 45 46 44 39 31 23 17 14 13 13 13 13 14 14 15 15 14 13 12 12 13 13 12 11 9 7 7 6 6 6 6 6 6 6 6 6 5 4 4 4 4 4 4 4 4 4 3 3 3 3 3 3 3 3 4 4 4 4 4 4 4 4 3 3 3 3 3
70 72 75 78 79 82 85 88 87 82 74 65 57 52 48 46 46 46 46 43 37 29 22 16 14 13 13 13 14 14 15 15 14 13 12 12 12 13 12 11 10 8 7 6 6 6 6 6 6 7 6 6 6 5 5 4 4 4 4 4 4 4 4 4 4 3 3 3 3 3 3 4 4 4 4 4 4 4 4 4 4 4 4 4 3 4
80 85 89 93 98 100 97 91 82 71 61 54 50 48 48 48 47 42 35 27 20 16 14 13 13 14 14 14 15 15 14 13 12 12 12 12 12 11 9 8 7 6 6 6 5 6 7 7 7 6 6 5 5 4 4 4 4 4 4 4 4 4 4 4 4 3 3 3 3 3 3 4 4 4 5 5 5 4 4 4 4 4 4 4 4 4
95 99 102 104 104 98 87 74 64 56 51 49 48 49 47 41 34 26 19 15 14 13 14 14 14 14 15 15 14 13 12 12 12 12 12 11 10 8 7 6 6 5 5 6 6 6 7 6 6 5 5 4 4 4 4 4 4 4 4 4 4 4 4 4 4 3 3 3 3 3 3 4 4 5 5 5 5 5 5 4 4 4 4 4 4 5
104 105 104 99 89 76 64 56 52 50 49 48 45 40 33 24 18 15 14 14 14 15 15 16 15 15 14 14 13 12 12 12 12 11 10 8 7 6 6 5 6 6 6 6 6 6 6 5 4 4 4 4 4 4 4 4 4 4 4 3 3 3 4 4 4 3 4 3 3 4 4 4 4 5 5 6 6 5 5 5 4 4 4 4 5 5
105 98 88 76 65 56 51 48 47 47 46 40 32 24 18 14 13 14 14 15 15 16 16 16 15 14 13 12 12 12 12 11 10 8 7 6 6 6 6 6 6 7 7 6 6 5 4 4 4 4 4 4 4 4 4 4 4 4 3 3 4 4 4 4 4 4 4 4 4 4 4 4 5 5 5 6 6 5 5 5 5 5 5 5 5 5
85 73 63 55 50 47 45 44 43 39 32 24 17 14 14 14 14 15 15 15 16 16 16 15 14 13 13 12 12 12 10 8 7 6 6 6 6 6 6 7 7 7 6 5 4 4 4 4 4 4 4 4 4 4 4 3 3 3 3 3 4 4 4 4 4 4 4 4 4 4 4 4 4 5 5 6 6 6 5 5 5 5 5 5 5 6
61 54 49 45 43 43 42 39 32 24 17 14 14 14 15 15 15 16 16 17 16 16 14 13 13 13 13 12 10 9 7 6 6 6 6 6 6 7 7 7 6 5 5 4 4 4 4 4 4 4 4 4 4 4 4 4 4 4 4 4 4 4 4 4 5 5 4 4 4 4 4 4 5 5 6 6 6 6 6 6 5 5 5 5 6 6
Wind_Speed
44 45 46 47 48 50 51 53 55 56 57 59 61 62 60 57 56 57 58 59 59 59 61 63 64 66 65 66 67 67 66 65 63 62 61 59 58 58 52 44 40 40 42 43 44 45 47 48 49 50 50 50 50 50 51 54 56 58 60 60 61 61 62 64 65 65 66 67 68 70 71 73 74 76 78 80 81 82 82 83 84 85 84 84 84 84
46 47 48 49 51 52 53 55 56 57 60 62 62 59 56 54 55 57 59 60 60 59 61 62 64 67 67 67 68 67 66 64 63 62 59 57 57 52 44 39 40 42 43 44 45 46 48 49 50 50 50 50 51 52 54 56 60 62 63 63 63 64 65 66 68 68 69 71 72 73 75 76 78 80 82 84 86 86 87 89 90 89 89 88 88 88
49 50 51 52 53 54 56 57 57 59 62 62 58 55 54 55 56 58 60 61 60 60 61 62 63 66 68 69 69 67 66 64 63 60 56 55 53 45 40 40 42 43 44 45 46 47 49 50 50 50 50 51 52 54 56 59 61 63 65 65 66 68 68 69 71 73 74 75 76 78 80 81 83 85 86 88 89 90 91 93 94 93 93 92 91 92
50 52 53 54 55 56 57 58 59 61 61 58 55 54 56 58 59 59 59 60 61 61 62 62 61 63 67 70 70 68 66 65 62 57 53 51 47 42 41 43 44 45 45 46 47 49 50 50 51 50 51 52 54 56 59 61 63 65 67 68 70 71 72 73 75 77 78 79 80 82 84 86 87 89 90 92 93 94 95 96 97 97 96 96 95 95
52 53 54 55 56 56 57 60 62 60 57 55 56 58 58 60 61 61 60 60 61 62 63 64 61 61 64 69 71 69 67 63 58 51 47 45 44 43 43 44 46 46 47 47 48 50 51 51 52 52 53 54 57 59 61 63 66 68 70 72 73 75 76 77 78 80 82 83 84 85 87 90 91 93 95 96 96 97 99 100 101 100 100 100 99 99
53 54 55 55 56 57 59 62 61 57 55 55 58 60 61 62 62 63 62 61 61 62 63 66 63 60 63 67 69 68 65 59 50 43 42 44 45 46 45 46 47 47 48 49 49 51 52 53 54 55 56 58 59 61 64 66 69 71 73 74 76 77 78 79 81 83 84 85 87 88 90 92 94 96 98 100 100 101 102 104 104 104 104 103 103 101
54 54 54 55 56 59 62 61 59 57 57 58 60 61 63 63 63 63 63 62 62 62 62 66 66 61 62 67 69 67 62 52 42 38 41 45 47 47 47 48 49 49 49 49 50 52 54 55 56 58 60 61 63 65 67 69 71 73 75 76 77 79 80 81 83 85 87 88 90 91 93 95 97 99 101 103 104 104 106 107 107 108 108 107 106 105
53 53 53 55 58 61 62 59 58 58 59 60 62 64 64 64 64 64 63 63 62 62 61 64 67 63 63 67 69 67 59 45 36 38 42 46 48 49 50 50 51 51 50 50 52 55 57 58 60 61 63 65 67 69 71 72 73 75 76 78 80 82 83 84 86 87 89 91 93 95 96 98 100 103 104 106 107 108 109 110 110 111 111 110 109 108
51 52 55 58 61 62 61 59 59 60 61 62 64 66 65 65 64 64 63 63 62 61 60 62 65 63 63 67 69 64 53 39 35 40 43 45 49 51 52 53 54 53 53 53 55 58 61 62 64 66 68 70 71 73 74 75 76 78 80 82 84 85 86 87 89 91 92 94 96 98 100 102 104 106 108 109 111 111 112 112 113 113 113 113 111 109
51 54 57 60 62 62 60 60 61 62 63 65 66 67 66 65 64 63 62 62 60 59 59 61 63 63 63 67 69 60 46 37 37 42 44 46 50 52 54 56 57 57 57 57 59 62 65 66 68 70 72 74 75 76 78 79 80 81 83 85 87 88 90 91 92 94 96 98 100 102 104 106 108 110 111 112 114 115 115 115 116 116 115 114 112 109
53 56 60 62 63 61 60 61 62 64 66 68 68 67 66 64 63 62 61 61 60 58 58 61 63 63 63 67 67 56 43 39 41 43 45 47 50 52 54 57 58 59 61 62 64 67 69 70 71 73 75 77 78 80 81 83 84 85 86 87 89 91 93 95 96 98 100 103 104 107 109 111 112 114 115 116 117 118 118 118 118 117 116 114 112 109
56 59 62 63 63 61 61 63 65 67 69 70 69 68 66 64 62 59 58 59 58 57 57 58 60 62 65 67 64 52 43 42 44 44 47 49 51 53 55 56 58 60 63 65 67 69 71 73 75 77 79 81 82 84 85 87 88 88 89 90 91 94 96 98 100 102 105 107 109 111 113 115 117 118 119 119 120 120 120 119 118 117 116 114 111 108
58 61 64 64 62 62 64 66 68 69 70 71 71 69 67 65 61 57 56 56 54 53 53 55 58 61 64 65 60 53 48 45 45 46 50 53 55 57 58 59 61 63 65 67 69 71 74 75 77 79 81 83 85 87 88 89 90 91 92 93 95 97 99 102 104 106 108 111 114 116 118 120 121 123 123 123 123 123 121 119 117 115 114 113 109 106
58 61 63 63 62 65 67 69 70 70 71 71 71 70 67 66 61 56 55 54 53 51 49 52 57 58 61 59 56 55 52 49 48 49 53 57 59 61 62 64 65 67 69 71 72 74 76 78 80 82 84 86 87 89 90 91 92 94 95 97 99 101 103 105 108 110 112 115 117 120 122 124 126 126 127 126 125 124 121 119 115 113 111 110 107 104
60 62 62 62 64 67 70 72 73 72 71 70 69 69 66 65 62 56 54 52 51 48 46 50 54 55 56 56 55 55 53 52 52 53 56 59 62 64 66 68 69 71 73 75 77 78 80 82 83 85 87 89 90 91 93 94 95 97 99 101 103 105 107 109 112 114 117 119 121 124 126 128 129 130 129 128 127 125 121 118 114 110 108 107 104 103
62 62 62 63 66 69 71 73 74 74 72 69 67 66 65 63 61 58 54 52 51 46 43 45 49 52 55 57 58 57 55 55 57 58 60 63 65 68 69 71 74 76 78 79 81 83 84 86 87 89 91 92 93 95 96 97 99 100 102 104 106 109 111 113 116 118 121 123 125 127 129 130 131 131 131 129 127 124 119 115 111 108 106 105 103 102
63 61 62 65 69 72 73 74 74 74 71 67 65 64 63 60 59 57 53 50 49 44 40 40 43 51 57 59 60 59 58 59 60 63 66 68 70 71 72 75 77 79 81 83 85 86 88 90 91 93 95 96 97 98 99 100 102 103 105 107 110 113 116 118 121 123 125 127 128 130 131 132 132 131 130 127 124 120 116 112 109 107 105 104 102 101
64 61 62 67 72 74 74 74 73 72 70 66 64 63 61 58 56 55 51 48 45 40 39 39 41 50 58 61 61 60 59 61 63 66 69 72 74 75 76 78 81 83 85 87 89 91 92 94 95 97 99 100 101 101 102 104 105 107 109 111 113 116 119 123 125 128 129 131 131 132 132 132 130 128 124 121 119 117 115 112 109 106 104 103 100 99
63 62 64 69 74 75 75 73 71 69 68 66 63 61 60 58 55 51 47 45 42 39 40 41 42 48 56 62 63 61 62 64 66 69 72 75 76 78 79 82 84 86 89 90 92 94 96 98 99 100 101 102 104 104 105 106 108 111 113 115 117 120 123 126 130 132 133 134 133 133 131 129 125 121 118 115 114 114 113 112 110 107 104 102 99 97
64 66 66 69 73 74 73 72 69 66 65 63 61 60 59 57 53 47 43 44 44 42 43 44 43 47 55 60 62 63 65 66 67 71 74 76 78 81 83 85 87 89 91 93 95 97 99 101 102 103 104 104 106 107 108 110 112 114 117 120 122 124 127 130 133 135 135 135 134 132 129 124 120 117 114 113 112 111 110 109 108 107 105 102 99 96
66 68 69 70 72 71 69 69 67 63 61 58 58 58 58 54 49 44 43 46 48 46 46 46 45 50 58 61 62 65 66 66 69 73 77 79 81 84 86 88 90 92 94 96 98 100 102 103 105 105 106 107 108 110 112 114 116 118 121 124 127 129 131 134 135 136 135 134 131 127 123 119 116 114 112 111 109 107 106 105 105 105 104 103 100 95
69 69 70 69 68 68 67 66 64 61 58 57 58 56 53 49 46 45 44 46 49 50 51 51 49 54 62 65 67 70 70 70 73 78 80 82 85 87 89 92 94 96 98 100 102 104 105 106 107 107 108 109 111 113 115 118 121 123 126 128 131 132 134 136 136 135 132 129 124 120 117 115 113 111 109 108 106 104 104 103 103 103 104 102 98 94
69 69 67 66 65 65 64 62 59 58 58 58 56 51 47 46 47 48 47 47 49 51 55 56 55 58 64 67 71 74 74 75 78 81 83 86 88 91 93 95 98 100 102 104 106 107 108 108 109 110 111 113 115 117 119 122 125 127 130 132 134 135 136 136 135 131 127 122 118 116 115 114 112 109 106 104 101 100 100 100 101 102 103 101 97 92
68 67 65 63 62 62 60 59 58 59 58 56 51 47 46 48 50 51 52 52 52 54 59 60 61 64 67 69 73 75 76 79 82 84 87 89 91 95 97 99 102 104 106 107 108 109 109 110 111 112 114 116 119 121 123 126 129 131 133 135 136 137 135 133 129 124 120 117 115 114 113 112 109 106 103 100 98 96 96 97 97 98 99 98 94 89
65 65 64 60 58 57 56 57 58 57 55 51 48 48 49 51 53 55 56 58 58 59 64 66 66 70 74 76 77 78 80 83 86 88 91 93 96 99 101 103 105 107 108 109 109 110 111 112 114 116 119 121 123 125 128 130 132 134 136 137 136 134 130 125 121 118 117 115 113 111 109 106 103 101 99 97 95 95 94 94 93 93 93 92 89 84
63 63 61 58 56 56 55 54 51 49 48 46 47 49 52 54 57 58 60 62 63 63 66 70 70 71 76 82 83 84 85 88 90 93 95 98 101 103 104 106 107 109 110 110 110 111 113 115 118 120 123 125 128 130 132 134 135 136 136 135 133 129 124 120 118 116 115 113 110 106 102 99 97 95 93 92 91 91 91 91 90 88 87 85 82 79
58 59 58 57 57 56 52 47 44 43 44 45 47 50 54 57 60 62 64 66 67 68 69 73 75 74 77 83 86 88 90 92 94 96 99 101 104 106 107 108 108 109 111 111 112 114 116 119 122 125 127 130 132 134 135 137 137 136 134 130 127 124 122 119 117 115 113 110 105 100 96 94 91 89 88 87 87 88 87 86 85 84 82 79 77 75
54 55 56 56 54 52 47 44 43 43 45 48 50 53 57 60 63 66 68 70 71 72 73 77 80 81 83 85 88 91 93 95 97 100 102 104 106 108 108 108 109 110 112 114 116 118 121 124 126 129 131 133 135 136 137 137 136 133 129 126 124 122 121 119 116 112 108 103 99 95 92 90 88 84 83 83 83 83 83 81 80 79 77 75 73 71
52 52 52 50 49 48 46 45 46 47 49 51 54 57 60 63 66 69 72 74 75 76 78 80 84 87 90 91 93 96 98 99 101 104 105 107 108 108 109 110 111 113 115 118 120 123 126 128 131 133 134 135 136 137 136 134 131 129 126 124 123 122 120 117 113 107 102 98 94 91 89 87 84 81 80 79 78 78 78 77 76 75 73 71 69 68
47 45 45 43 44 47 49 49 50 52 54 55 58 62 65 67 70 72 75 77 79 80 82 84 87 91 94 96 98 100 103 104 105 107 108 109 109 110 111 113 115 117 119 122 125 127 129 132 134 135 136 136 136 134 132 129 126 124 123 122 121 120 117 112 107 103 99 95 92 90 88 85 82 80 78 76 74 73 73 73 73 72 70 68 67 65
41 40 41 41 44 49 52 53 54 56 58 60 62 66 70 72 74 76 79 82 83 84 87 90 92 94 97 100 102 105 107 108 107 107 108 110 111 113 115 117 119 121 124 126 129 131 133 135 136 136 136 135 134 131 128 125 123 122 121 120 119 115 111 107 103 100 97 94 91 88 87 85 82 79 78 75 71 69 69 69 69 68 67 65 64 63
39 40 42 43 46 50 54 56 58 59 62 65 68 71 74 76 77 79 82 86 87 88 91 93 96 98 100 102 104 106 108 109 109 109 110 111 114 116 119 121 124 126 128 130 132 134 135 136 136 135 134 132 129 127 124 122 121 120 119 117 114 110 106 103 100 99 96 94 90 86 85 84 81 78 76 74 70 67 66 65 65 65 64 62 61 60
41 43 45 47 49 52 56 59 62 64 66 68 72 75 77 79 80 83 86 89 92 94 96 98 99 101 102 103 103 104 106 109 111 112 114 116 118 120 123 126 129 131 132 134 135 136 136 135 134 132 129 126 123 121 120 119 118 116 114 112 108 105 103 101 100 98 96 93 89 85 82 81 77 74 73 71 67 64 63 62 61 61 60 59 58 57
45 46 49 51 52 56 60 63 66 69 71 73 76 78 80 82 83 85 88 92 94 97 100 102 102 103 104 104 105 105 107 110 114 117 120 122 124 127 129 131 133 134 136 136 137 137 136 133 130 127 124 122 120 119 117 116 114 112 110 107 104 102 101 100 99 98 95 92 88 84 80 78 74 71 70 68 65 61 60 58 58 57 57 56 55 54
49 51 53 55 58 60 64 67 70 72 74 77 79 82 84 86 87 88 91 95 97 99 101 102 102 103 104 106 108 109 112 114 118 122 125 128 130 132 133 135 135 136 137 137 136 135 132 128 124 121 120 119 118 117 115 113 110 108 107 105 103 101 100 99 98 96 94 90 87 82 78 76 71 68 67 65 62 60 58 56 55 54 54 53 52 51
54 56 58 61 63 66 68 70 73 75 77 79 82 85 88 90 92 92 93 95 98 99 100 100 102 104 106 109 111 114 116 119 123 127 130 132 133 135 136 137 137 137 136 134 131 128 124 121 119 118 117 116 115 114 112 110 108 106 105 104 102 101 99 98 96 94 91 88 84 79 75 73 69 66 65 62 59 57 56 54 53 52 51 51 50 49
59 62 64 65 67 70 71 73 76 78 81 83 86 88 91 93 94 94 92 92 95 98 100 101 104 107 110 113 116 119 121 123 126 130 133 135 136 138 138 138 137 134 131 127 124 122 120 119 118 116 115 114 113 111 109 107 105 104 103 102 101 100 98 96 93 91 88 86 81 76 72 70 67 63 62 60 57 56 54 53 51 51 50 49 48 47
64 66 68 70 71 73 75 77 79 81 84 87 88 89 90 91 93 93 93 94 97 101 104 106 109 113 116 119 122 124 126 127 128 131 134 136 137 137 135 133 130 127 124 122 120 119 119 119 118 117 115 113 111 109 107 106 105 104 103 101 100 98 96 93 91 88 86 83 78 73 69 68 65 61 60 58 55 54 53 51 50 49 49 48 46 45
67 69 71 73 75 78 80 82 84 85 86 87 87 87 89 91 94 96 97 100 104 108 112 114 116 119 122 125 127 128 129 130 130 131 132 132 131 130 127 124 123 122 122 122 121 120 119 119 118 117 115 113 111 109 108 107 106 104 102 100 97 95 93 90 88 85 83 81 76 71 67 66 62 59 57 56 54 52 51 50 49 48 48 46 44 43
70 72 75 77 80 82 83 84 84 84 85 86 87 88 90 95 99 102 104 107 110 114 118 121 123 124 126 128 129 130 131 132 130 128 126 124 123 122 122 121 121 122 122 122 122 121 120 119 117 115 114 112 111 109 108 106 105 102 100 97 94 92 90 87 84 81 79 77 74 69 66 63 60 56 55 54 52 51 50 48 47 47 46 44 43 41
74 76 79 80 81 82 81 81 82 83 86 89 92 93 96 100 104 108 111 114 116 118 120 123 126 127 128 129 130 130 129 128 126 124 122 121 121 121 121 121 122 122 122 122 121 120 119 117 115 113 112 110 109 107 105 103 101 99 96 94 91 89 86 83 80 78 76 74 70 66 63 61 58 55 54 53 51 50 49 47 46 46 45 43 41 40
77 78 78 78 78 79 80 81 84 87 91 94 98 101 104 106 109 112 115 118 120 121 123 124 127 128 128 127 127 126 124 123 122 122 121 122 122 122 121 121 121 121 121 121 120 118 116 114 113 111 109 107 105 103 101 99 97 95 92 90 88 85 83 80 77 75 73 71 68 63 60 59 56 53 52 52 50 49 48 46 45 45 44 41 39 38
75 74 75 75 77 81 84 87 89 92 96 99 102 105 108 111 113 115 118 120 123 124 125 126 126 126 125 123 122 121 120 120 120 121 121 122 122 122 121 120 120 119 118 117 115 114 113 111 110 108 106 103 101 99 97 95 93 91 88 86 84 82 79 76 74 73 71 69 65 60 57 57 55 52 51 51 50 48 47 46 45 44 43 40 38 37
72 73 76 79 82 86 89 93 96 99 102 106 108 110 113 115 118 120 122 123 124 126 126 125 123 122 121 121 120 119 119 119 119 119 119 120 120 120 119 118 117 115 114 112 111 110 109 107 106 104 102 100 98 95 93 91 89 87 85 83 80 78 76 74 72 71 69 66 63 58 56 55 54 51 50 51 49 48 46 45 43 43 41 39 37 35
75 78 81 85 88 91 94 97 101 104 108 111 114 116 118 120 122 124 125 125 124 123 122 121 120 119 119 119 119 119 118 118 117 117 117 117 117 117 116 115 113 112 110 109 108 107 106 104 103 101 99 97 95 93 91 88 86 84 82 80 78 76 73 72 70 69 67 64 61 57 54 53 52 50 49 49 49 47 45 43 42 41 40 38 36 34
80 83 85 88 91 95 98 101 105 109 112 115 118 120 122 123 123 123 123 121 120 119 118 118 118 117 116 116 116 116 116 116 116 116 116 115 114 113 112 111 110 109 108 107 106 105 103 102 100 98 97 95 93 91 88 86 83 81 79 77 75 73 71 69 68 67 65 63 60 57 53 51 50 49 47 48 48 46 44 42 41 40 39 37 35 33
83 86 88 91 95 99 102 105 109 112 115 118 119 120 121 120 119 118 117 115 115 114 115 115 115 114 113 113 113 114 114 115 114 114 113 112 110 110 109 108 108 107 106 104 103 101 99 98 97 95 94 92 91 88 86 83 81 79 76 74 72 69 68 66 66 65 64 62 60 57 53 50 49 47 46 46 46 45 43 42 41 39 38 37 35 33
86 89 92 95 99 103 106 109 112 114 117 119 118 118 116 114 112 111 111 110 110 110 111 112 113 113 112 112 112 112 112 112 111 110 109 108 107 107 107 106 105 104 103 101 100 98 97 95 94 92 91 89 87 85 83 81 79 76 74 71 69 67 65 65 65 64 62 60 59 56 53 49 47 46 45 45 45 44 42 41 40 39 38 36 35 33
89 93 97 100 104 107 109 111 113 114 114 115 113 112 110 108 107 106 107 107 107 107 108 109 110 111 111 111 110 110 109 108 107 106 106 105 105 104 104 103 102 101 100 98 98 96 95 93 91 89 88 86 85 83 81 79 76 74 71 69 67 66 64 63 63 62 61 59 58 55 51 48 46 44 43 43 44 44 42 40 39 38 37 36 35 33
94 98 101 104 107 109 111 112 112 111 109 108 106 105 105 104 103 103 104 104 104 104 105 106 107 108 109 109 108 107 106 105 105 104 104 103 103 102 101 99 98 97 97 96 96 94 93 91 89 87 85 84 82 80 78 76 74 73 71 69 66 64 63 61 60 60 59 58 57 54 50 47 45 43 42 41 42 43 41 39 38 38 37 36 35 34
99 102 105 108 110 111 112 112 111 108 106 104 103 103 102 102 101 101 102 102 103 103 103 104 104 104 105 105 105 104 104 104 104 104 103 102 101 100 99 97 96 95 94 94 93 92 90 89 87 85 83 81 80 78 76 75 73 72 70 68 66 63 61 59 58 58 57 56 55 53 49 46 44 43 41 40 41 42 41 39 38 37 36 35 35 34
Wind_Direction
288 289 291 293 294 296 297 298 299 299 300 301 302 302 301 299 297 297 298 299 300 301 301 301 301 300 300 300 300 300 300 301 302 303 305 307 306 302 300 298 295 296 298 299 301 302 302 303 303 303 302 300 298 297 296 296 297 299 300 300 301 302 302 302 302 303 303 304 305 305 305 306 307 308 308 309 309 309 309 308 307 307 306 305 305 304
289 291 293 295 296 297 298 299 299 301 302 302 302 301 300 298 298 298 299 300 301 302 301 301 302 301 301 301 301 301 301 302 303 304 308 308 303 300 299 297 297 299 300 302 303 303 303 303 303 303 301 300 297 296 295 296 298 299 301 301 302 302 302 302 303 303 304 305 306 306 307 307 308 309 309 309 309 309 309 308 308 307 307 306 306 305
291 293 294 295 296 297 299 300 301 302 302 302 301 300 300 299 299 300 301 302 302 302 301 301 301 302 302 301 301 301 302 302 303 307 310 306 300 298 298 299 300 301 302 303 304 304 304 304 303 303 302 300 298 296 296 297 298 300 301 301 302 302 303 303 304 305 306 307 307 308 308 308 308 308 308 308 308 308 308 308 307 307 307 307 306 305
292 294 295 295 297 298 300 301 302 303 303 302 301 301 301 301 301 301 302 302 302 302 301 301 301 302 302 301 301 301 302 302 305 310 308 301 297 298 300 301 302 302 303 304 304 305 305 304 304 303 302 301 300 299 299 299 300 301 302 302 303 304 304 305 306 306 307 307 308 308 308 308 308 307 307 307 308 308 308 307 307 307 307 307 306 306
292 293 294 296 298 300 301 303 303 303 302 302 302 302 303 303 303 303 302 302 302 303 302 301 302 302 302 300 300 300 300 302 309 311 303 297 297 299 302 303 303 303 304 305 306 306 305 304 304 303 303 302 302 302 301 302 302 302 303 303 304 304 305 305 306 306 306 307 307 307 307 306 306 306 307 307 308 308 308 307 307 307 307 307 306 305
292 293 295 297 299 301 303 304 303 302 302 302 303 303 304 304 303 303 303 303 303 303 302 301 302 303 301 299 298 297 299 306 312 306 297 297 299 301 303 304 304 305 305 307 308 307 305 304 304 304 304 304 303 303 303 302 302 302 302 303 303 304 304 304 305 305 305 305 305 305 305 305 305 306 306 306 307 308 307 307 307 307 307 306 305 304
292 294 297 299 301 303 304 304 302 302 302 303 303 303 304 304 304 303 303 303 303 303 303 302 302 303 302 299 297 297 303 311 310 299 297 299 301 303 304 304 304 305 307 309 309 306 303 302 303 304 304 305 304 303 302 301 301 301 302 302 302 303 303 303 303 304 303 303 304 304 305 305 305 305 305 306 307 307 306 306 306 306 306 305 304 304
293 296 299 301 303 304 304 303 302 302 302 303 303 304 304 304 304 303 303 304 304 304 304 302 302 304 302 298 296 299 307 313 306 299 300 302 303 304 304 304 305 306 309 311 308 305 302 302 303 304 304 304 303 302 301 301 302 302 303 303 303 303 303 303 303 303 303 303 304 304 305 305 305 305 305 306 306 306 306 306 306 305 305 305 304 303
296 299 300 301 303 304 303 302 301 302 303 304 304 305 305 304 304 304 304 304 304 304 304 303 302 303 301 297 295 300 308 311 305 302 303 304 304 304 304 305 306 308 311 310 307 304 303 304 304 304 304 303 302 302 302 303 304 304 304 304 304 303 303 303 303 303 303 304 304 305 305 305 305 305 306 306 306 306 306 306 305 305 304 304 303 301
299 300 300 302 304 303 302 302 302 303 304 304 305 306 305 305 304 304 304 304 304 305 305 304 303 302 300 295 295 302 308 309 305 304 305 305 303 302 304 305 307 310 310 308 305 303 303 304 305 304 303 303 303 304 304 305 305 305 305 304 303 303 302 303 303 303 304 305 305 305 306 306 306 306 306 307 306 306 306 305 305 304 303 302 301 300
299 300 301 303 304 303 302 302 303 304 305 305 306 305 305 304 304 304 305 305 306 306 306 305 302 301 297 293 295 302 307 307 306 305 305 303 301 301 303 304 307 308 307 305 304 304 304 305 304 304 304 304 305 305 305 305 305 305 304 303 303 302 302 303 304 305 305 306 306 306 306 307 307 307 307 307 307 306 306 305 304 303 302 301 300 298
300 300 302 304 303 302 302 303 304 305 305 305 306 305 304 304 304 305 305 305 305 306 305 303 300 298 295 292 295 301 306 307 307 307 305 302 301 302 303 304 305 305 303 303 303 304 304 304 304 305 305 306 306 306 305 305 304 304 303 302 302 302 303 304 305 306 306 307 307 307 307 307 308 308 308 307 307 306 305 304 303 302 301 300 298 297
300 302 303 303 302 303 303 304 304 305 306 306 306 305 305 304 305 307 307 305 305 304 303 301 298 295 292 292 296 302 306 308 308 307 305 304 303 303 304 305 304 303 303 303 303 303 303 304 305 305 305 305 305 304 304 303 303 303 302 303 303 304 304 305 306 307 307 307 307 307 308 308 308 308 308 307 306 305 304 303 302 301 300 298 296 295
299 301 302 302 302 303 304 304 305 305 305 306 306 305 305 305 306 308 307 306 304 303 301 298 295 292 289 291 296 301 306 308 309 308 306 305 304 304 305 305 304 304 303 303 303 303 304 305 305 305 304 304 303 303 303 302 303 303 303 304 304 305 306 306 307 307 307 307 307 308 308 308 308 308 307 307 306 305 304 302 301 300 298 296 295 293
299 301 301 300 301 302 304 304 305 305 305 305 305 305 305 306 307 308 307 305 303 302 300 297 293 289 289 294 298 301 305 308 308 307 305 303 303 304 304 304 304 304 304 304 305 305 306 306 305 304 303 303 303 303 303 303 304 304 304 305 305 306 306 307 307 307 307 308 308 308 308 308 308 308 307 307 306 304 303 301 300 298 296 295 293 292
300 301 300 300 301 302 303 304 305 305 305 305 305 305 306 307 308 308 308 306 304 302 299 295 291 290 293 298 300 303 307 309 308 307 305 304 303 304 304 305 305 305 305 306 306 306 306 305 305 304 303 303 304 304 304 304 305 305 305 306 306 307 307 307 307 307 308 308 308 308 308 308 307 307 307 306 304 303 301 300 298 297 295 294 293 291
300 300 300 300 301 302 303 304 305 305 305 305 306 305 305 306 306 307 307 306 303 301 297 292 291 292 296 300 302 304 308 309 307 306 305 305 304 305 305 305 305 305 306 307 306 306 306 305 305 305 304 305 305 305 305 305 305 305 306 306 307 307 307 308 307 308 308 308 308 308 308 307 307 306 305 304 303 302 300 299 297 296 294 293 291 290
300 300 301 301 301 302 304 305 305 305 305 306 306 306 305 306 306 307 307 304 300 299 296 294 295 295 298 301 302 305 307 306 306 306 305 304 305 305 306 306 306 306 307 307 307 307 306 306 305 305 305 305 305 305 305 305 305 306 306 307 307 308 307 307 307 308 308 308 308 308 307 307 306 305 304 303 302 301 300 298 297 295 293 292 290 290
300 300 301 302 302 303 304 305 305 305 306 306 306 306 305 306 307 307 306 302 299 299 298 298 298 298 299 300 302 305 306 305 306 306 304 304 305 306 306 307 307 307 307 307 307 306 306 305 305 305 306 305 305 305 305 305 306 307 307 308 308 308 307 307 308 308 308 308 308 308 307 306 305 304 303 303 302 301 299 298 296 295 293 292 291 290
300 300 300 301 302 303 304 304 304 305 305 306 306 305 305 307 308 306 304 301 300 301 301 300 302 301 299 298 301 303 303 304 305 304 303 304 305 306 306 306 306 306 306 306 305 305 305 305 306 306 306 305 305 305 306 306 307 308 308 308 308 308 308 308 308 308 308 308 308 307 307 306 305 304 303 302 301 299 298 297 296 294 293 292 291 291
299 300 301 302 303 304 304 303 304 304 304 304 304 304 305 307 306 305 304 303 303 304 303 302 304 304 299 299 301 301 301 303 304 303 303 305 305 305 305 305 305 305 305 305 305 305 306 306 306 306 306 305 306 306 307 307 308 308 308 308 308 308 308 308 308 308 308 308 307 307 306 306 305 304 303 302 300 299 297 296 295 293 292 292 291 292
300 301 303 303 303 303 303 302 303 303 303 303 303 304 305 305 304 303 305 304 305 307 305 304 306 304 301 302 302 301 303 306 306 305 305 305 305 305 305 305 305 305 306 306 306 306 306 306 306 306 306 306 306 307 307 308 308 308 308 308 308 308 308 308 308 308 308 308 307 307 306 306 305 304 303 301 300 298 297 295 294 292 291 291 292 293
301 303 303 303 303 303 302 301 302 302 302 303 304 305 305 304 303 304 305 304 304 305 304 304 305 303 302 303 303 303 306 307 305 305 305 304 304 304 304 305 306 307 307 307 307 306 306 306 306 306 306 306 307 307 308 308 308 308 308 308 308 308 308 308 308 308 308 308 308 307 307 306 305 304 302 300 298 296 295 293 292 291 291 291 292 292
303 303 303 303 303 302 301 302 302 303 304 305 306 306 305 305 305 305 306 305 306 306 305 305 306 304 303 303 302 303 305 305 304 304 304 304 305 305 306 307 307 307 307 306 306 306 306 306 306 306 306 307 307 308 308 308 308 308 308 308 309 309 308 308 308 308 308 308 308 308 307 306 304 303 302 300 298 295 293 291 290 289 289 290 291 291
303 302 302 302 301 300 300 301 303 304 305 306 307 307 307 306 305 305 305 306 307 307 306 306 307 306 305 304 303 305 305 304 305 305 305 306 306 307 307 307 307 306 306 306 306 306 306 306 306 306 307 308 308 309 308 308 308 309 309 309 309 309 308 308 309 309 309 309 308 308 306 305 303 302 301 299 297 295 293 291 290 290 289 290 290 290
303 302 301 302 301 300 301 302 303 304 304 305 306 306 305 304 304 304 305 305 306 307 306 305 305 306 305 304 305 306 306 306 306 306 307 307 307 306 306 306 306 306 306 306 306 306 306 306 306 307 308 308 309 309 309 309 309 309 309 309 309 309 309 309 310 310 310 309 308 307 305 304 303 302 300 299 297 295 294 293 292 291 291 290 290 289
302 301 301 302 302 303 304 305 306 305 304 304 304 304 303 303 303 303 304 305 305 306 306 305 304 305 304 304 305 306 306 306 307 307 306 306 305 305 305 305 306 305 305 306 306 306 307 307 307 308 308 309 309 309 309 309 309 309 309 309 310 310 310 310 310 310 309 308 307 306 305 304 303 302 301 299 298 296 295 294 293 292 292 291 290 288
302 301 302 303 304 305 307 307 306 305 304 304 303 303 302 302 303 304 304 305 305 306 306 305 306 305 305 305 306 306 306 306 306 305 305 304 304 305 305 306 305 305 306 306 306 307 308 308 308 308 309 309 309 309 309 309 309 310 310 310 310 310 310 310 309 309 308 307 307 306 306 305 304 303 302 300 298 297 296 295 294 293 292 291 290 288
303 302 303 306 306 306 307 307 306 305 304 304 304 303 302 302 303 304 304 305 305 306 306 306 306 306 306 306 307 306 306 306 305 305 305 305 305 305 305 306 305 306 306 307 307 308 308 308 308 309 309 309 309 309 309 310 310 311 311 310 310 310 310 309 309 309 309 308 308 308 307 306 306 305 303 301 299 298 296 295 294 294 293 291 290 288
306 306 307 308 307 306 306 306 306 306 305 305 305 304 303 304 304 305 305 305 306 306 306 306 306 306 306 307 306 306 305 305 305 305 305 305 306 306 306 306 306 306 307 307 308 308 308 308 308 308 308 308 309 309 310 310 310 310 310 310 310 309 309 309 310 310 310 310 310 310 309 308 308 307 305 302 300 299 297 296 295 294 293 291 289 287
311 310 308 308 307 306 306 306 306 306 306 306 305 304 304 305 306 306 306 306 306 307 307 307 306 306 306 306 306 306 305 305 306 306 306 306 306 306 306 306 306 307 307 308 308 308 308 308 308 308 309 309 310 310 310 310 310 310 310 309 309 309 309 310 311 311 311 311 311 311 311 311 310 308 306 304 302 300 298 296 295 293 292 291 289 287
311 309 307 307 306 305 305 305 306 305 306 306 306 305 305 306 307 307 307 306 306 306 306 305 305 305 305 305 305 305 306 306 306 306 306 305 306 306 306 306 307 307 308 308 308 308 308 308 308 309 310 310 310 310 310 310 310 309 309 309 309 310 311 311 312 312 312 312 312 312 312 311 310 309 306 304 303 301 298 296 294 293 292 291 289 287
308 307 306 306 306 305 305 305 306 306 307 307 306 306 306 306 307 307 307 306 306 306 305 304 304 304 305 305 305 305 306 306 306 306 305 306 306 306 307 307 308 308 308 308 308 308 308 309 310 310 310 310 310 309 310 310 310 310 310 310 311 311 312 313 314 313 313 313 313 313 313 311 310 308 306 304 303 301 298 296 294 293 292 291 289 287
307 307 306 306 306 306 306 307 307 307 308 308 307 306 306 306 306 306 305 305 305 305 305 305 305 306 306 306 306 306 306 306 306 306 306 307 308 308 308 308 308 308 308 308 308 309 309 310 310 310 309 309 309 309 310 310 310 310 311 311 312 313 314 314 314 314 313 313 313 313 313 311 310 309 306 304 303 301 299 297 295 294 293 291 289 287
307 307 307 308 308 308 308 308 308 308 308 308 307 306 306 306 305 305 305 305 305 305 306 306 307 307 307 307 306 306 306 307 307 307 308 308 308 308 308 308 308 308 308 308 309 309 309 309 309 309 309 309 309 310 310 311 311 312 312 312 313 314 314 314 314 313 313 313 313 314 314 312 311 309 306 304 303 302 300 298 297 296 294 292 289 286
310 310 310 310 310 309 309 309 309 308 308 307 306 306 306 306 306 306 307 307 307 306 306 306 306 306 305 305 306 306 307 308 308 308 308 308 308 307 307 307 308 308 308 308 308 308 308 308 308 309 309 310 310 311 312 312 312 312 313 313 313 314 314 314 314 313 313 312 313 314 313 311 311 309 306 304 304 303 301 300 298 297 296 293 290 286
312 312 311 311 311 310 310 309 308 308 307 307 307 307 307 306 306 306 306 306 305 304 304 304 304 305 305 306 307 308 309 309 308 308 307 307 306 306 307 307 307 307 307 307 307 308 308 309 310 311 311 312 312 313 313 313 313 313 313 314 314 314 314 314 314 313 313 312 313 314 313 312 311 309 306 305 305 304 302 301 300 299 297 293 290 287
312 312 311 311 310 310 309 308 308 308 307 307 307 307 306 306 306 306 306 305 305 304 305 305 306 307 308 308 309 308 308 308 307 306 306 305 305 305 306 306 306 306 307 307 308 309 310 311 312 312 313 313 313 313 313 313 313 314 314 314 314 314 314 314 314 313 312 312 313 314 314 312 311 309 307 306 306 305 303 302 301 300 297 294 290 287
312 311 311 311 310 309 309 309 308 308 308 307 307 307 307 306 306 306 306 307 307 307 308 309 309 309 309 308 308 307 306 306 306 306 305 305 305 305 305 306 307 308 309 310 311 311 312 312 313 313 313 313 313 313 313 313 313 313 313 314 314 314 314 313 313 313 312 312 313 315 313 311 310 309 308 307 306 305 304 303 302 300 297 293 290 287
311 311 311 310 310 310 309 309 309 309 308 307 307 307 307 307 307 308 309 309 310 310 310 310 309 308 307 307 306 306 306 306 306 306 306 306 306 307 308 309 310 311 311 312 312 312 313 313 313 313 313 313 313 313 313 313 313 313 313 313 314 314 313 313 313 312 311 311 313 314 313 310 310 310 309 307 307 306 304 303 302 300 296 293 290 287
311 311 310 310 310 309 309 309 309 309 309 308 309 309 310 310 310 311 311 311 310 309 309 308 307 306 306 306 306 306 306 307 307 308 308 309 309 310 311 312 312 312 313 313 313 313 313 313 313 313 313 313 312 312 312 312 312 313 313 313 313 313 313 313 313 312 311 311 312 313 312 310 310 310 309 308 307 306 305 303 302 300 296 293 290 287
311 310 310 310 310 309 309 309 310 310 311 311 312 312 312 311 311 311 310 309 308 307 307 306 306 306 306 307 307 308 308 309 309 310 311 311 312 312 312 313 312 312 312 313 313 313 313 312 312 312 312 312 312 312 312 312 312 313 313 313 313 313 313 313 313 312 311 311 312 313 312 310 311 311 310 308 308 307 305 304 302 299 296 292 289 287
310 310 310 310 310 311 311 312 312 312 312 312 312 312 311 310 309 309 308 307 307 307 307 307 307 308 308 309 309 309 310 311 311 312 312 312 312 312 313 312 312 312 312 312 312 311 311 311 311 311 311 311 312 312 312 313 313 313 313 313 313 313 313 313 313 311 311 311 312 312 312 312 312 312 310 308 308 307 305 303 301 298 295 291 288 286
311 312 312 312 313 314 314 314 314 314 313 312 311 311 310 309 309 308 308 308 308 309 309 309 309 310 310 310 311 311 312 312 312 312 312 312 312 312 312 312 312 312 311 311 311 311 311 311 311 312 312 312 313 313 313 313 313 313 313 313 313 313 314 314 313 311 311 311 312 313 314 313 312 312 310 308 307 306 304 302 299 297 294 290 288 286
314 315 315 316 316 315 315 315 314 313 312 311 311 310 310 310 310 310 310 310 310 310 310 311 311 311 311 312 312 312 312 312 312 312 312 312 312 312 312 312 312 312 312 311 312 312 312 313 313 313 313 313 313 314 314 314 314 314 313 313 314 314 314 313 312 311 311 311 312 314 314 313 312 312 310 307 306 305 303 301 298 296 293 290 287 286
317 317 317 316 315 314 314 313 312 311 311 311 311 311 311 311 311 311 311 311 311 311 311 311 311 311 311 311 312 312 312 312 312 312 312 312 312 312 312 312 312 312 313 313 313 313 314 314 314 314 314 314 314 314 314 314 314 314 314 314 314 314 313 312 311 311 311 312 313 314 314 313 312 311 309 306 304 304 302 300 297 295 292 289 286 285
317 316 315 314 313 312 312 312 311 311 311 311 311 311 311 311 311 311 311 311 311 311 311 311 311 311 311 312 312 312 312 312 312 312 312 312 313 313 313 313 313 313 314 314 314 314 314 314 314 314 314 314 314 314 314 314 314 315 314 314 314 313 312 312 312 312 312 313 313 314 314 313 312 310 308 305 303 303 302 299 297 294 291 289 286 284
315 314 313 312 312 311 311 311 311 311 311 311 311 311 311 311 311 311 311 311 311 311 311 311 311 312 312 313 313 313 313 313 313 313 313 313 313 314 314 314 314 315 315 315 315 315 315 315 315 315 314 314 315 315 315 315 315 314 314 314 313 313 313 313 313 312 312 313 313 313 313 313 311 309 307 304 302 302 301 299 296 293 291 288 286 283
313 312 312 311 311 311 311 311 311 311 311 311 311 311 311 311 311 311 311 311 311 312 312 312 312 313 313 313 313 313 313 313 313 314 314 314 315 315 315 315 315 315 315 316 316 316 316 316 316 315 315 315 315 315 315 315 315 314 314 314 315 315 314 314 313 312 312 312 312 312 312 312 311 309 306 304 302 301 300 298 295 291 289 287 285 282
312 311 311 311 311 311 311 311 311 311 311 311 311 311 311 312 312 312 312 312 313 313 313 313 313 313 314 314 314 314 314 314 314 315 315 315 316 315 315 316 316 316 316 317 317 317 317 317 316 316 316 316 316 315 315 315 315 316 316 316 316 315 314 313 312 312 311 311 310 310 311 311 310 308 306 303 301 299 299 297 293 290 287 285 283 281
312 312 312 312 312 312 312 312 313 313 313 313 313 313 313 314 314 314 314 314 314 314 314 314 314 314 314 314 315 315 316 316 316 317 317 317 317 317 317 317 318 318 318 318 317 317 317 317 317 316 316 316 316 316 316 316 316 316 316 316 316 315 314 313 312 310 310 309 309 309 310 310 309 307 304 302 300 298 297 296 293 289 285 282 281 279